Tunica, MS

5:30 PM CST on January 23, 2017 (GMT -0600)
Tunica

Weather History for KUTA - May, 2013

Change the Weather History Date:

Sunday, May 5, 2013

  Actual Average (KAWM) Record (KAWM)
Temperature  
Mean Temperature 52 °F -  
Max Temperature 60 °F 78 °F 90 °F (2012)
Min Temperature 44 °F 56 °F 46 °F (1988)
Degree Days  
Heating Degree Days 13    
Growing Degree Days 2 (Base 50)    
Moisture  
Dew Point 45 °F    
Average Humidity 80    
Maximum Humidity 100    
Minimum Humidity 51    
Precipitation  
Precipitation 0.07 in - - ()
Sea Level Pressure  
Sea Level Pressure 29.94 in    
Wind  
Wind Speed 6 mph (NW)    
Max Wind Speed 18 mph    
Max Gust Speed 22 mph    
Visibility 10 miles    
Events Rain    
Averages and records for this station are not official NWS values.
T = Trace of Precipitation, MM = Missing Value Source: NWS Daily Summary

Daily Weather History Graph

Daily Weather History Graph

Search for Another Location

Airport or City:

Trip Planner

Search our weather history database for the weather conditions in past years. The results will help you decide how hot, cold, wet, or windy it might be!

Date:

Astronomy

May. 05, 2013 Rise Set
Actual Time 6:06 AM CDT 7:49 PM CDT
Civil Twilight 5:39 AM CDT 8:17 PM CDT
Nautical Twilight 5:06 AM CDT 8:49 PM CDT
Astronomical Twilight 4:32 AM CDT 9:24 PM CDT
Moon 3:27 AM CDT (5/5) 3:58 PM CDT (5/5)
Length of Visible Light 14h 37m
Length of Day
13h 42m
Waning Crescent, 18% of the Moon is Illuminated
May 5
Waning Crescent
May 9
New
May 17
First Quarter
May 24
Full
May 31
Last Quarter

Hourly Weather History & Observations

Time (CDT) Temp. Windchill Dew Point Humidity Pressure Visibility Wind Dir Wind Speed Gust Speed Precip Events Conditions
12:15 AM 46.4 °F 45.2 °F 44.6 °F 93% 29.93 in 10.0 mi North 3.5 mph - N/A   Mostly Cloudy
12:35 AM 46.4 °F - 44.6 °F 93% 29.93 in 10.0 mi Calm Calm - N/A   Overcast
12:55 AM 46.4 °F 44.3 °F 44.6 °F 93% 29.92 in 10.0 mi NNW 4.6 mph - N/A   Mostly Cloudy
1:15 AM 46.4 °F 45.2 °F 44.6 °F 93% 29.92 in 10.0 mi NNW 3.5 mph - N/A   Mostly Cloudy
1:35 AM 44.6 °F 43.1 °F 42.8 °F 93% 29.91 in 10.0 mi NNW 3.5 mph - N/A   Mostly Cloudy
1:55 AM 44.6 °F 43.1 °F 44.6 °F 100% 29.91 in 10.0 mi North 3.5 mph - N/A   Overcast
2:15 AM 46.4 °F 43.5 °F 44.6 °F 93% 29.90 in 10.0 mi NNW 5.8 mph - N/A   Overcast
2:35 AM 46.4 °F 42.9 °F 44.6 °F 93% 29.90 in 10.0 mi NW 6.9 mph - N/A   Overcast
3:15 AM 46.4 °F 43.5 °F 44.6 °F 93% 29.89 in 10.0 mi NW 5.8 mph - N/A   Overcast
3:35 AM 46.4 °F 42.9 °F 44.6 °F 93% 29.89 in 10.0 mi NW 6.9 mph - N/A   Overcast
3:55 AM 46.4 °F 42.4 °F 44.6 °F 93% 29.89 in 10.0 mi NW 8.1 mph - N/A   Mostly Cloudy
4:15 AM 44.6 °F 40.7 °F 42.8 °F 93% 29.90 in 10.0 mi NNW 6.9 mph - N/A   Mostly Cloudy
4:35 AM 46.4 °F 43.5 °F 44.6 °F 93% 29.90 in 7.0 mi NNW 5.8 mph - N/A   Drizzle
4:55 AM 44.6 °F 40.7 °F 44.6 °F 100% 29.90 in 7.0 mi NNW 6.9 mph - N/A   Light Drizzle
5:15 AM 44.6 °F 41.4 °F 42.8 °F 93% 29.90 in 7.0 mi NNW 5.8 mph - N/A   Drizzle
5:55 AM 44.6 °F 43.1 °F 42.8 °F 93% 29.91 in 7.0 mi NE 3.5 mph - 0.02 in   Drizzle
6:15 AM 44.6 °F - 42.8 °F 93% 29.92 in 10.0 mi Calm Calm - N/A   Drizzle
6:35 AM 44.6 °F - 42.8 °F 93% 29.93 in 10.0 mi Calm Calm - N/A   Drizzle
6:55 AM 44.6 °F - 42.8 °F 93% 29.93 in 7.0 mi Calm Calm - 0.02 in Rain Light Rain
7:15 AM 44.6 °F - 44.6 °F 100% 29.93 in 7.0 mi Calm Calm - 0.01 in Rain Rain
7:35 AM 46.4 °F 43.5 °F 44.6 °F 93% 29.93 in 5.0 mi NW 5.8 mph - 0.02 in Rain Rain
7:55 AM 46.4 °F 42.9 °F 44.6 °F 93% 29.94 in 5.0 mi NW 6.9 mph - 0.03 in Rain Light Rain
8:15 AM 46.4 °F 43.5 °F 44.6 °F 93% 29.94 in 7.0 mi NW 5.8 mph - N/A   Overcast
8:35 AM 46.4 °F 44.3 °F 44.6 °F 93% 29.94 in 10.0 mi NNW 4.6 mph - N/A Rain Light Rain
8:55 AM 46.4 °F 42.9 °F 46.4 °F 100% 29.95 in 10.0 mi North 6.9 mph - N/A   Overcast
9:15 AM 48.2 °F - 46.4 °F 93% 29.95 in 10.0 mi NNW 8.1 mph - N/A   Overcast
9:35 AM 48.2 °F - 44.6 °F 87% 29.96 in 10.0 mi NNW 6.9 mph - N/A   Overcast
9:55 AM 48.2 °F - 44.6 °F 87% 29.96 in 10.0 mi North 5.8 mph - N/A Rain Light Rain
10:15 AM 48.2 °F - 46.4 °F 93% 29.97 in 10.0 mi North 8.1 mph - N/A   Light Drizzle
10:35 AM 48.2 °F - 46.4 °F 93% 29.97 in 10.0 mi NNW 9.2 mph - N/A   Overcast
10:55 AM 50.0 °F - 46.4 °F 87% 29.98 in 10.0 mi NNW 10.4 mph - N/A   Overcast
11:15 AM 50.0 °F - 46.4 °F 87% 29.98 in 10.0 mi NNW 10.4 mph - N/A   Mostly Cloudy
11:35 AM 53.6 °F - 46.4 °F 77% 29.98 in 10.0 mi North 8.1 mph - N/A   Mostly Cloudy
11:55 AM 53.6 °F - 46.4 °F 77% 29.98 in 10.0 mi NNW 10.4 mph - N/A   Scattered Clouds
12:15 PM 55.4 °F - 44.6 °F 67% 29.98 in 10.0 mi NNW 15.0 mph - N/A   Mostly Cloudy
12:35 PM 55.4 °F - 44.6 °F 67% 29.97 in 10.0 mi North 8.1 mph - N/A   Scattered Clouds
12:55 PM 57.2 °F - 44.6 °F 63% 29.96 in 10.0 mi NW 10.4 mph 19.6 mph N/A   Scattered Clouds
1:15 PM 57.2 °F - 42.8 °F 59% 29.96 in 10.0 mi NW 15.0 mph - N/A   Mostly Cloudy
1:35 PM 59.0 °F - 44.6 °F 59% 29.96 in 10.0 mi WNW 12.7 mph 18.4 mph N/A   Scattered Clouds
1:55 PM 59.0 °F - 44.6 °F 59% 29.96 in 10.0 mi WNW 11.5 mph 17.3 mph N/A   Scattered Clouds
2:15 PM 60.8 °F - 42.8 °F 52% 29.95 in 10.0 mi WNW 10.4 mph 18.4 mph N/A   Scattered Clouds
2:35 PM 59.0 °F - 42.8 °F 55% 29.95 in 10.0 mi WNW 9.2 mph 19.6 mph N/A   Clear
2:55 PM 59.0 °F - 41.0 °F 51% 29.95 in 10.0 mi NW 13.8 mph - N/A   Clear
3:15 PM 59.0 °F - 42.8 °F 55% 29.95 in 10.0 mi NW 13.8 mph 17.3 mph N/A   Scattered Clouds
3:35 PM 60.8 °F - 42.8 °F 52% 29.95 in 10.0 mi NW 12.7 mph - N/A   Mostly Cloudy
3:55 PM 59.0 °F - 41.0 °F 51% 29.95 in 10.0 mi NW 15.0 mph - N/A   Mostly Cloudy
4:15 PM 59.0 °F - 42.8 °F 55% 29.95 in 10.0 mi WNW 12.7 mph 17.3 mph N/A   Mostly Cloudy
4:35 PM 59.0 °F - 42.8 °F 55% 29.95 in 10.0 mi NW 13.8 mph - N/A   Overcast
4:55 PM 57.2 °F - 42.8 °F 59% 29.95 in 10.0 mi NW 16.1 mph - N/A   Overcast
5:15 PM 57.2 °F - 44.6 °F 63% 29.95 in 10.0 mi NW 11.5 mph - N/A   Overcast
5:35 PM 55.4 °F - 42.8 °F 63% 29.96 in 10.0 mi NW 18.4 mph - N/A   Overcast
5:55 PM 55.4 °F - 44.6 °F 67% 29.96 in 10.0 mi WNW 17.3 mph 21.9 mph N/A   Overcast
6:15 PM 55.4 °F - 44.6 °F 67% 29.96 in 10.0 mi WNW 12.7 mph - N/A   Mostly Cloudy
6:35 PM 53.6 °F - 44.6 °F 72% 29.97 in 10.0 mi NW 11.5 mph - N/A   Overcast
6:55 PM 53.6 °F - 44.6 °F 72% 29.96 in 10.0 mi NW 5.8 mph - N/A   Overcast
7:15 PM 53.6 °F - 44.6 °F 72% 29.96 in 10.0 mi NW 6.9 mph - N/A   Overcast
7:35 PM 53.6 °F - 44.6 °F 72% 29.96 in 10.0 mi NW 4.6 mph - N/A   Overcast
7:55 PM 53.6 °F - 46.4 °F 77% 29.96 in 10.0 mi WNW 5.8 mph - N/A   Overcast
8:15 PM 53.6 °F - 46.4 °F 77% 29.96 in 10.0 mi WNW 5.8 mph - N/A   Overcast
8:35 PM 53.6 °F - 44.6 °F 72% 29.96 in 10.0 mi West 9.2 mph - N/A   Overcast
8:55 PM 53.6 °F - 46.4 °F 77% 29.95 in 10.0 mi West 8.1 mph - N/A   Overcast
9:15 PM 53.6 °F - 46.4 °F 77% 29.95 in 10.0 mi WNW 9.2 mph - N/A   Overcast
9:35 PM 53.6 °F - 46.4 °F 77% 29.95 in 10.0 mi WNW 9.2 mph 16.1 mph N/A   Mostly Cloudy
9:55 PM 51.8 °F - 46.4 °F 82% 29.95 in 10.0 mi WNW 6.9 mph - N/A   Mostly Cloudy
10:15 PM 51.8 °F - 46.4 °F 82% 29.95 in 10.0 mi West 6.9 mph - N/A   Scattered Clouds
10:35 PM 51.8 °F - 46.4 °F 82% 29.95 in 10.0 mi WNW 8.1 mph - N/A   Mostly Cloudy
10:55 PM 53.6 °F - 48.2 °F 82% 29.95 in 10.0 mi West 5.8 mph - N/A   Overcast
11:15 PM 53.6 °F - 48.2 °F 82% 29.95 in 10.0 mi West 5.8 mph - N/A   Overcast
11:35 PM 53.6 °F - 48.2 °F 82% 29.94 in 10.0 mi West 5.8 mph - N/A   Overcast
11:55 PM 53.6 °F - 50.0 °F 88% 29.94 in 10.0 mi West 4.6 mph - N/A   Overcast